NIMBUS 2 DEB, 59973

Orbit data source: Space-Track

NIMBUS 2 DEB, 59973 is space debris in SSO originally from a launch on Sun, 15 May 1966 UTC launched from the Air Force Western Test Range (AFWTR). Debris objects in space refer to the collection of defunct objects orbiting the Earth. Examples of debris include non-operational satellites, rocket bodies, and fragments generated from explosions, collisions, or faulty payload assembly.

Loading next visibility...
Identifier
59973, 1966-040CC
Orbit
SSO
Country
Flag of USUS
Related business
Manufacturer
Unknown
Mission
Spacecraft
Bus & Motor
Unknown
Mass
Unknown
Launch date (UTC)
1966-05-15 (59 years ago)
Launch vehicle
Unknown
Launch site
Air Force Western Test Range (AFWTR)
Object type
Payload
Rocket body
Debris
Shape & HBR
Unknown shape, 0.1 m
Radar Cross Section
Small (<0.1 m²)

Expand to show TLE details & history
Last TLE update: 3 days ago

TLE from 3 days ago
0 NIMBUS 2 DEB
1 59973U 66040CC  25284.42014317  .00002014  00000-0  36579-2 0  9991
2 59973 100.2374  87.1518 0046027  77.1022 283.5241 13.41777741382673
Epoch: 2025-10-11T10:05Z
TLE epoch observation values (Epoch: 2025-10-11T10:05:00.369Z)
Latitude
-0.00009°
Longitude
-84.35161°
Altitude
1,097.516 km
Speed
7.307 km/s
True Right ascension
05h 48m 36s
True Declination
0° 00' 00"
Sunlit
Object was in daylight at epoch
Visualization orbit readout
Latitude
Unknown
Longitude
Unknown
Altitude
Unknown
Speed
Unknown
Apparent Right ascension
Unknown
Apparent Declination
Unknown
Sunlit
N/A
Visualization observer readout
Local Sidereal Time
11:47:45
Azimuth
Unknown
Elevation
Unknown
Doppler factor
Unknown
Orbital elements
Apogee altitude
1,134.424 km
Perigee altitude
1,065.585 km
Semi-major axis
7,478.142 km
Eccentricity
0.0046
Inclination
100.2374°
RAAN
87.1518°
Arg. of periapsis
77.1022°
True anomaly
283.01061°
Mean anomaly
283.5241°
Eccentric anomaly
283.26742°
Mean motion
3.35624 °/min
Orbital period
107.26 mins
BSTAR
0.0036579
Loading maneuver chart data...
Computing Atmospheric mass density...
Loading historical data...
Loading historical data...
Loading historical data...
Loading historical data...
Loading historical data...
Loading historical data...
Loading historical data...

Documentation

Showing up to 5 results
|